Tracking 29059 objects as of 19-Jun-2024
HD Live streaming from Space Station
objects crossing your sky now

SPACEBEE-6

Track SPACEBEE-6 now!
10-day predictions


NORAD ID: 43818
Int'l Code: 2018-099BN
Perigee: 497.2 km
Apogee: 507.1 km
Inclination: 97.5 °
Period: 94.5 minutes
Semi major axis: 6873 km
RCS: Unknown
Launch date: December 3, 2018
Source: United States (US)
Launch site: AIR FORCE WESTERN TEST RANGE (AFWTR)
Your satellite tracking list
Your tracking list is empty




NASA's NSSDC Master Catalog

Two Line Element Set (TLE):
1 43818U 18099BN  24171.18634179  .00026091  00000-0  10899-2 0  9992
2 43818  97.5415 240.2412 0007202 270.8693  89.1719 15.23586878303215
Source of the keplerian elements: AFSPC